QPF
0.00 0.00 0.00 0.00 0.00 0.00 0.00 0.00 0.01 0.01 0.01 0.00 0.00 0.00 0.00 0.00 0.00 0.00 0.00 0.00 0.00 0.00 0.00 0.01 0.01 0.01 0.00 0.00 0.01 0.01 0.01 0.01 0.01 0.00 0.00 0.00 0.00 0.00 0.00 0.00 0.00 0.00 0.00 0.00
0.00 0.00 0.00 0.00 0.00 0.00 0.00 0.00 0.00 0.01 0.00 0.00 0.00 0.00 0.00 0.00 0.00 0.00 0.00 0.00 0.00 0.00 0.00 0.00 0.00 0.01 0.00 0.00 0.01 0.01 0.01 0.01 0.01 0.01 0.00 0.00 0.00 0.00 0.00 0.00 0.00 0.00 0.00 0.00
0.00 0.00 0.00 0.00 0.00 0.00 0.00 0.00 0.00 0.00 0.00 0.00 0.00 0.00 0.00 0.00 0.00 0.00 0.00 0.00 0.00 0.00 0.00 0.00 0.00 0.00 0.00 0.00 0.00 0.00 0.01 0.01 0.01 0.01 0.00 0.00 0.00 0.00 0.00 0.00 0.00 0.00 0.00 0.00
0.00 0.00 0.01 0.00 0.00 0.00 0.00 0.00 0.00 0.00 0.00 0.00 0.00 0.00 0.00 0.00 0.00 0.00 0.00 0.00 0.00 0.00 0.00 0.00 0.00 0.00 0.00 0.00 0.00 0.01 0.01 0.01 0.02 0.01 0.01 0.00 0.00 0.00 0.00 0.00 0.00 0.00 0.00 0.00
0.01 0.00 0.00 0.00 0.00 0.00 0.00 0.00 0.00 0.00 0.00 0.00 0.00 0.00 0.00 0.00 0.00 0.00 0.00 0.00 0.00 0.00 0.00 0.00 0.00 0.00 0.00 0.00 0.00 0.01 0.01 0.01 0.01 0.01 0.01 0.00 0.00 0.00 0.00 0.00 0.00 0.00 0.00 0.00
0.01 0.01 0.01 0.01 0.00 0.00 0.00 0.00 0.00 0.00 0.00 0.00 0.00 0.00 0.00 0.00 0.00 0.00 0.00 0.00 0.00 0.00 0.00 0.01 0.01 0.01 0.00 0.00 0.00 0.01 0.01 0.01 0.01 0.01 0.01 0.01 0.00 0.00 0.00 0.00 0.00 0.00 0.00 0.00
0.00 0.01 0.02 0.01 0.00 0.00 0.01 0.01 0.01 0.00 0.00 0.00 0.00 0.00 0.00 0.00 0.00 0.00 0.00 0.00 0.00 0.00 0.00 0.01 0.01 0.01 0.00 0.00 0.00 0.01 0.01 0.01 0.01 0.01 0.01 0.01 0.00 0.00 0.00 0.00 0.00 0.00 0.00 0.00
0.01 0.01 0.01 0.00 0.00 0.00 0.01 0.01 0.01 0.00 0.00 0.00 0.00 0.00 0.00 0.00 0.00 0.00 0.00 0.00 0.00 0.00 0.00 0.01 0.01 0.01 0.00 0.01 0.01 0.01 0.01 0.01 0.01 0.01 0.01 0.01 0.01 0.00 0.00 0.00 0.00 0.00 0.00 0.00
0.01 0.01 0.01 0.00 0.00 0.00 0.00 0.01 0.00 0.00 0.00 0.00 0.00 0.00 0.00 0.00 0.00 0.00 0.00 0.00 0.00 0.00 0.00 0.00 0.00 0.00 0.01 0.01 0.01 0.01 0.01 0.01 0.01 0.01 0.01 0.01 0.01 0.01 0.00 0.00 0.00 0.00 0.00 0.00
0.01 0.01 0.01 0.00 0.00 0.00 0.00 0.01 0.00 0.00 0.00 0.00 0.00 0.01 0.00 0.00 0.00 0.00 0.00 0.00 0.00 0.00 0.00 0.00 0.00 0.01 0.01 0.01 0.01 0.01 0.01 0.01 0.01 0.01 0.01 0.01 0.01 0.00 0.00 0.00 0.00 0.00 0.00 0.00
0.00 0.00 0.00 0.00 0.00 0.00 0.00 0.00 0.00 0.00 0.00 0.00 0.00 0.00 0.01 0.01 0.01 0.00 0.00 0.00 0.00 0.00 0.00 0.00 0.00 0.01 0.01 0.01 0.01 0.01 0.01 0.01 0.01 0.01 0.01 0.01 0.01 0.01 0.01 0.01 0.01 0.01 0.00 0.00
0.00 0.00 0.00 0.00 0.00 0.00 0.00 0.00 0.00 0.00 0.00 0.00 0.00 0.00 0.00 0.00 0.01 0.01 0.00 0.00 0.01 0.01 0.00 0.00 0.01 0.01 0.01 0.01 0.01 0.01 0.01 0.01 0.01 0.01 0.01 0.01 0.02 0.02 0.01 0.01 0.01 0.01 0.01 0.01
0.00 0.00 0.00 0.00 0.00 0.00 0.00 0.00 0.00 0.00 0.00 0.00 0.00 0.00 0.00 0.00 0.00 0.01 0.01 0.01 0.01 0.01 0.02 0.01 0.01 0.01 0.01 0.01 0.01 0.01 0.01 0.01 0.01 0.01 0.02 0.02 0.02 0.02 0.02 0.01 0.01 0.01 0.01 0.01
0.00 0.00 0.00 0.00 0.00 0.00 0.00 0.01 0.00 0.00 0.00 0.00 0.00 0.00 0.00 0.00 0.00 0.00 0.01 0.01 0.01 0.01 0.02 0.02 0.01 0.01 0.01 0.01 0.01 0.01 0.01 0.01 0.01 0.02 0.02 0.02 0.02 0.02 0.02 0.01 0.01 0.01 0.01 0.01
0.00 0.00 0.00 0.00 0.00 0.00 0.00 0.01 0.00 0.00 0.00 0.00 0.00 0.00 0.00 0.00 0.00 0.00 0.01 0.01 0.01 0.01 0.01 0.01 0.01 0.01 0.01 0.01 0.01 0.01 0.01 0.02 0.02 0.02 0.02 0.02 0.02 0.01 0.01 0.01 0.01 0.01 0.01 0.01
0.00 0.00 0.00 0.00 0.00 0.00 0.01 0.01 0.00 0.00 0.00 0.00 0.00 0.00 0.00 0.00 0.00 0.00 0.00 0.00 0.01 0.01 0.01 0.01 0.01 0.01 0.02 0.02 0.02 0.02 0.03 0.03 0.02 0.01 0.01 0.01 0.01 0.01 0.01 0.01 0.01 0.01 0.01 0.01
0.00 0.00 0.00 0.00 0.00 0.00 0.00 0.00 0.00 0.00 0.00 0.00 0.00 0.00 0.00 0.00 0.00 0.00 0.00 0.00 0.00 0.01 0.01 0.01 0.01 0.01 0.02 0.03 0.02 0.02 0.02 0.02 0.01 0.01 0.01 0.01 0.01 0.01 0.01 0.01 0.01 0.01 0.01 0.01
0.00 0.00 0.00 0.00 0.00 0.00 0.00 0.00 0.00 0.00 0.00 0.00 0.00 0.00 0.01 0.01 0.00 0.00 0.00 0.00 0.00 0.00 0.00 0.00 0.01 0.01 0.01 0.02 0.02 0.02 0.01 0.01 0.01 0.01 0.01 0.01 0.01 0.01 0.00 0.01 0.00 0.00 0.00 0.00
0.00 0.00 0.00 0.00 0.00 0.00 0.00 0.00 0.00 0.00 0.00 0.00 0.00 0.00 0.01 0.01 0.01 0.01 0.01 0.00 0.00 0.00 0.00 0.00 0.00 0.00 0.01 0.01 0.01 0.01 0.01 0.01 0.01 0.01 0.01 0.01 0.01 0.01 0.01 0.00 0.00 0.00 0.00 0.01
0.00 0.00 0.00 0.00 0.00 0.00 0.00 0.00 0.00 0.00 0.00 0.00 0.00 0.00 0.00 0.00 0.00 0.01 0.01 0.01 0.00 0.00 0.00 0.00 0.00 0.00 0.00 0.00 0.01 0.01 0.01 0.00 0.00 0.01 0.01 0.00 0.00 0.01 0.00 0.00 0.01 0.01 0.00 0.00
0.00 0.00 0.00 0.00 0.00 0.00 0.00 0.00 0.00 0.00 0.00 0.00 0.00 0.00 0.00 0.00 0.00 0.00 0.00 0.01 0.01 0.01 0.01 0.01 0.01 0.00 0.00 0.00 0.00 0.00 0.00 0.00 0.00 0.00 0.00 0.00 0.00 0.00 0.00 0.01 0.01 0.01 0.00 0.01
0.01 0.01 0.00 0.00 0.00 0.00 0.00 0.00 0.00 0.00 0.00 0.00 0.00 0.00 0.00 0.00 0.00 0.00 0.00 0.00 0.00 0.01 0.01 0.01 0.01 0.01 0.01 0.01 0.01 0.01 0.00 0.01 0.01 0.01 0.00 0.00 0.01 0.01 0.01 0.01 0.01 0.01 0.01 0.01
0.00 0.01 0.01 0.01 0.00 0.00 0.00 0.00 0.00 0.00 0.00 0.00 0.00 0.00 0.00 0.00 0.00 0.00 0.00 0.00 0.00 0.00 0.01 0.01 0.01 0.02 0.01 0.01 0.01 0.01 0.01 0.01 0.01 0.01 0.01 0.01 0.00 0.01 0.01 0.00 0.01 0.01 0.01 0.01
0.00 0.00 0.00 0.01 0.01 0.00 0.00 0.00 0.00 0.00 0.00 0.00 0.00 0.00 0.00 0.00 0.00 0.00 0.00 0.00 0.00 0.00 0.01 0.01 0.01 0.01 0.01 0.01 0.01 0.02 0.01 0.01 0.01 0.01 0.01 0.01 0.01 0.00 0.00 0.00 0.01 0.01 0.00 0.00
0.00 0.00 0.00 0.00 0.00 0.00 0.00 0.00 0.00 0.00 0.00 0.00 0.00 0.00 0.00 0.00 0.00 0.00 0.00 0.00 0.00 0.00 0.00 0.01 0.01 0.01 0.01 0.01 0.01 0.02 0.02 0.02 0.02 0.02 0.02 0.02 0.01 0.01 0.01 0.01 0.00 0.00 0.00 0.00
0.00 0.00 0.00 0.00 0.00 0.00 0.00 0.00 0.00 0.00 0.00 0.00 0.00 0.00 0.00 0.00 0.00 0.00 0.00 0.00 0.01 0.00 0.00 0.01 0.01 0.01 0.01 0.01 0.01 0.01 0.02 0.03 0.03 0.04 0.04 0.03 0.03 0.02 0.01 0.01 0.01 0.01 0.01 0.01
0.00 0.00 0.00 0.00 0.00 0.00 0.00 0.00 0.00 0.00 0.00 0.00 0.00 0.00 0.00 0.00 0.00 0.00 0.00 0.01 0.01 0.01 0.01 0.01 0.00 0.01 0.01 0.01 0.01 0.01 0.01 0.02 0.02 0.03 0.04 0.05 0.04 0.03 0.02 0.02 0.02 0.02 0.02 0.01
MSLP
1017.68 1017.99 1018.25 1018.46 1018.60 1018.64 1018.59 1018.41 1018.11 1017.68 1017.15 1016.56 1015.92 1015.29 1014.72 1014.22 1013.83 1013.56 1013.39 1013.33 1013.35 1013.44 1013.59 1013.80 1014.05 1014.35 1014.72 1015.15 1015.64 1016.19 1016.77 1017.37 1017.97 1018.55 1019.09 1019.57 1019.99 1020.37 1020.70 1021.01 1021.30 1021.59 1021.88 1022.18
1017.56 1017.78 1017.92 1017.98 1017.96 1017.87 1017.70 1017.47 1017.17 1016.83 1016.44 1016.03 1015.62 1015.21 1014.83 1014.48 1014.18 1013.92 1013.71 1013.54 1013.42 1013.35 1013.34 1013.39 1013.51 1013.73 1014.04 1014.44 1014.93 1015.50 1016.11 1016.76 1017.40 1018.02 1018.60 1019.13 1019.60 1020.02 1020.40 1020.74 1021.05 1021.36 1021.65 1021.95
1017.48 1017.61 1017.62 1017.53 1017.35 1017.11 1016.83 1016.54 1016.25 1015.98 1015.73 1015.50 1015.30 1015.12 1014.94 1014.76 1014.57 1014.36 1014.14 1013.90 1013.67 1013.46 1013.29 1013.19 1013.18 1013.28 1013.50 1013.84 1014.29 1014.82 1015.43 1016.07 1016.73 1017.37 1017.98 1018.54 1019.06 1019.52 1019.94 1020.32 1020.66 1020.98 1021.28 1021.56
1017.41 1017.45 1017.34 1017.12 1016.80 1016.44 1016.07 1015.73 1015.44 1015.23 1015.09 1015.03 1015.02 1015.04 1015.05 1015.03 1014.96 1014.82 1014.62 1014.35 1014.05 1013.73 1013.44 1013.22 1013.08 1013.05 1013.16 1013.39 1013.75 1014.21 1014.76 1015.35 1015.98 1016.61 1017.22 1017.80 1018.34 1018.84 1019.29 1019.70 1020.07 1020.39 1020.69 1020.96
1017.30 1017.26 1017.07 1016.75 1016.34 1015.89 1015.46 1015.09 1014.82 1014.66 1014.61 1014.67 1014.81 1014.99 1015.15 1015.27 1015.31 1015.26 1015.09 1014.84 1014.50 1014.13 1013.76 1013.43 1013.18 1013.03 1013.01 1013.12 1013.35 1013.69 1014.13 1014.63 1015.18 1015.76 1016.34 1016.91 1017.45 1017.97 1018.44 1018.87 1019.25 1019.59 1019.88 1020.13
1017.08 1016.99 1016.75 1016.39 1015.95 1015.48 1015.04 1014.68 1014.43 1014.31 1014.34 1014.48 1014.72 1015.00 1015.28 1015.50 1015.63 1015.65 1015.55 1015.32 1014.99 1014.60 1014.19 1013.80 1013.46 1013.20 1013.05 1013.01 1013.10 1013.29 1013.58 1013.96 1014.39 1014.87 1015.39 1015.91 1016.43 1016.94 1017.42 1017.86 1018.25 1018.60 1018.88 1019.13
1016.70 1016.60 1016.37 1016.03 1015.62 1015.19 1014.80 1014.48 1014.28 1014.21 1014.29 1014.48 1014.78 1015.11 1015.45 1015.73 1015.93 1016.01 1015.96 1015.78 1015.48 1015.11 1014.69 1014.26 1013.86 1013.51 1013.24 1013.07 1013.00 1013.02 1013.15 1013.36 1013.66 1014.02 1014.43 1014.89 1015.36 1015.84 1016.31 1016.75 1017.15 1017.49 1017.78 1018.03
1016.15 1016.07 1015.90 1015.64 1015.33 1015.00 1014.70 1014.48 1014.35 1014.34 1014.46 1014.68 1014.99 1015.33 1015.69 1015.99 1016.22 1016.34 1016.33 1016.20 1015.96 1015.62 1015.23 1014.79 1014.36 1013.94 1013.57 1013.27 1013.04 1012.90 1012.86 1012.90 1013.04 1013.26 1013.56 1013.93 1014.34 1014.78 1015.22 1015.64 1016.03 1016.38 1016.68 1016.93
1015.47 1015.44 1015.36 1015.23 1015.06 1014.89 1014.73 1014.63 1014.60 1014.66 1014.81 1015.04 1015.34 1015.67 1016.00 1016.29 1016.52 1016.66 1016.69 1016.61 1016.42 1016.14 1015.77 1015.36 1014.91 1014.45 1014.01 1013.60 1013.24 1012.95 1012.74 1012.62 1012.61 1012.69 1012.87 1013.13 1013.46 1013.84 1014.23 1014.63 1015.01 1015.36 1015.66 1015.93
1014.72 1014.76 1014.80 1014.82 1014.83 1014.84 1014.85 1014.90 1014.98 1015.11 1015.30 1015.53 1015.81 1016.10 1016.39 1016.65 1016.86 1017.00 1017.06 1017.02 1016.88 1016.65 1016.33 1015.95 1015.50 1015.02 1014.53 1014.04 1013.57 1013.16 1012.81 1012.55 1012.39 1012.34 1012.40 1012.56 1012.80 1013.10 1013.45 1013.81 1014.16 1014.49 1014.79 1015.06
1013.99 1014.13 1014.29 1014.48 1014.67 1014.86 1015.05 1015.24 1015.43 1015.64 1015.86 1016.10 1016.35 1016.60 1016.85 1017.07 1017.25 1017.38 1017.45 1017.44 1017.35 1017.16 1016.90 1016.55 1016.13 1015.64 1015.12 1014.58 1014.04 1013.53 1013.08 1012.70 1012.43 1012.26 1012.20 1012.25 1012.40 1012.61 1012.88 1013.18 1013.49 1013.79 1014.06 1014.32
1013.39 1013.62 1013.91 1014.25 1014.60 1014.96 1015.30 1015.62 1015.92 1016.20 1016.45 1016.69 1016.92 1017.14 1017.34 1017.53 1017.69 1017.81 1017.88 1017.89 1017.83 1017.69 1017.47 1017.15 1016.76 1016.29 1015.76 1015.19 1014.61 1014.04 1013.52 1013.06 1012.69 1012.42 1012.26 1012.20 1012.24 1012.36 1012.53 1012.74 1012.97 1013.21 1013.44 1013.66
1012.97 1013.29 1013.69 1014.16 1014.64 1015.13 1015.60 1016.02 1016.40 1016.73 1017.02 1017.26 1017.48 1017.67 1017.85 1018.01 1018.15 1018.26 1018.34 1018.36 1018.33 1018.22 1018.03 1017.75 1017.38 1016.92 1016.40 1015.83 1015.24 1014.64 1014.07 1013.56 1013.12 1012.77 1012.51 1012.35 1012.27 1012.27 1012.33 1012.43 1012.55 1012.69 1012.84 1012.99
1012.74 1013.15 1013.65 1014.21 1014.80 1015.38 1015.92 1016.42 1016.85 1017.21 1017.52 1017.77 1017.99 1018.17 1018.33 1018.48 1018.61 1018.72 1018.80 1018.84 1018.82 1018.73 1018.56 1018.30 1017.95 1017.52 1017.02 1016.46 1015.87 1015.27 1014.69 1014.14 1013.65 1013.23 1012.88 1012.62 1012.42 1012.29 1012.20 1012.16 1012.15 1012.16 1012.20 1012.25
1012.68 1013.17 1013.75 1014.38 1015.03 1015.67 1016.26 1016.78 1017.24 1017.62 1017.94 1018.20 1018.42 1018.60 1018.77 1018.91 1019.05 1019.16 1019.24 1019.28 1019.26 1019.18 1019.02 1018.77 1018.45 1018.04 1017.56 1017.02 1016.45 1015.86 1015.28 1014.72 1014.20 1013.72 1013.29 1012.92 1012.60 1012.33 1012.09 1011.89 1011.73 1011.60 1011.50 1011.43
1012.73 1013.31 1013.95 1014.63 1015.32 1015.97 1016.57 1017.11 1017.57 1017.96 1018.28 1018.54 1018.77 1018.96 1019.14 1019.29 1019.43 1019.54 1019.62 1019.66 1019.64 1019.55 1019.39 1019.15 1018.83 1018.43 1017.98 1017.47 1016.93 1016.36 1015.80 1015.23 1014.69 1014.17 1013.67 1013.20 1012.76 1012.35 1011.97 1011.61 1011.29 1011.01 1010.77 1010.57
1012.85 1013.50 1014.20 1014.92 1015.61 1016.27 1016.86 1017.39 1017.84 1018.22 1018.54 1018.81 1019.05 1019.25 1019.44 1019.60 1019.75 1019.86 1019.93 1019.95 1019.92 1019.81 1019.64 1019.39 1019.07 1018.69 1018.26 1017.77 1017.26 1016.73 1016.18 1015.63 1015.07 1014.52 1013.97 1013.42 1012.88 1012.35 1011.83 1011.34 1010.87 1010.45 1010.07 1009.75
1012.99 1013.72 1014.46 1015.20 1015.90 1016.55 1017.13 1017.63 1018.07 1018.44 1018.76 1019.03 1019.28 1019.49 1019.69 1019.86 1020.00 1020.11 1020.16 1020.16 1020.10 1019.97 1019.77 1019.50 1019.18 1018.80 1018.38 1017.93 1017.44 1016.94 1016.41 1015.88 1015.32 1014.75 1014.16 1013.55 1012.94 1012.31 1011.69 1011.09 1010.52 1009.98 1009.50 1009.08
1013.16 1013.95 1014.73 1015.48 1016.18 1016.82 1017.38 1017.87 1018.28 1018.65 1018.96 1019.24 1019.49 1019.72 1019.92 1020.09 1020.22 1020.30 1020.33 1020.30 1020.20 1020.03 1019.80 1019.51 1019.17 1018.79 1018.37 1017.93 1017.47 1016.99 1016.49 1015.97 1015.42 1014.84 1014.23 1013.59 1012.93 1012.26 1011.58 1010.91 1010.27 1009.66 1009.11 1008.62
1013.38 1014.21 1015.02 1015.78 1016.48 1017.10 1017.65 1018.12 1018.53 1018.88 1019.20 1019.48 1019.73 1019.96 1020.15 1020.31 1020.42 1020.47 1020.46 1020.38 1020.24 1020.02 1019.75 1019.43 1019.07 1018.67 1018.26 1017.82 1017.38 1016.91 1016.43 1015.92 1015.38 1014.81 1014.19 1013.55 1012.87 1012.18 1011.48 1010.80 1010.13 1009.50 1008.91 1008.38
1013.68 1014.54 1015.36 1016.12 1016.81 1017.42 1017.95 1018.42 1018.82 1019.17 1019.48 1019.77 1020.01 1020.23 1020.41 1020.54 1020.62 1020.63 1020.58 1020.45 1020.25 1019.98 1019.67 1019.31 1018.92 1018.50 1018.08 1017.64 1017.19 1016.73 1016.25 1015.75 1015.21 1014.64 1014.04 1013.40 1012.73 1012.05 1011.36 1010.69 1010.04 1009.42 1008.84 1008.30
1014.09 1014.96 1015.77 1016.52 1017.20 1017.79 1018.31 1018.77 1019.16 1019.51 1019.82 1020.10 1020.34 1020.54 1020.70 1020.80 1020.83 1020.80 1020.69 1020.51 1020.25 1019.94 1019.57 1019.17 1018.75 1018.31 1017.86 1017.40 1016.94 1016.47 1015.98 1015.47 1014.93 1014.36 1013.75 1013.12 1012.47 1011.82 1011.16 1010.52 1009.90 1009.32 1008.77 1008.25
1014.61 1015.45 1016.25 1016.97 1017.63 1018.20 1018.71 1019.15 1019.55 1019.89 1020.20 1020.47 1020.70 1020.87 1021.00 1021.06 1021.05 1020.96 1020.80 1020.56 1020.25 1019.89 1019.48 1019.04 1018.57 1018.10 1017.62 1017.14 1016.65 1016.15 1015.63 1015.10 1014.53 1013.95 1013.33 1012.70 1012.07 1011.43 1010.80 1010.20 1009.62 1009.07 1008.56 1008.06
1015.20 1016.01 1016.76 1017.45 1018.07 1018.63 1019.11 1019.55 1019.93 1020.27 1020.57 1020.83 1021.04 1021.19 1021.28 1021.30 1021.25 1021.11 1020.90 1020.60 1020.25 1019.84 1019.38 1018.90 1018.41 1017.90 1017.38 1016.86 1016.34 1015.80 1015.24 1014.66 1014.06 1013.43 1012.79 1012.14 1011.50 1010.86 1010.25 1009.66 1009.11 1008.59 1008.09 1007.61
1015.80 1016.56 1017.27 1017.92 1018.50 1019.02 1019.49 1019.90 1020.28 1020.61 1020.90 1021.14 1021.33 1021.46 1021.52 1021.50 1021.40 1021.21 1020.95 1020.61 1020.22 1019.77 1019.28 1018.76 1018.23 1017.69 1017.15 1016.59 1016.02 1015.43 1014.82 1014.19 1013.53 1012.85 1012.16 1011.47 1010.79 1010.12 1009.49 1008.89 1008.34 1007.82 1007.33 1006.85
1016.36 1017.07 1017.72 1018.31 1018.85 1019.34 1019.78 1020.18 1020.54 1020.86 1021.14 1021.37 1021.54 1021.64 1021.67 1021.61 1021.47 1021.25 1020.95 1020.58 1020.14 1019.66 1019.15 1018.61 1018.06 1017.49 1016.91 1016.32 1015.71 1015.07 1014.41 1013.71 1012.99 1012.25 1011.50 1010.74 1010.00 1009.28 1008.60 1007.96 1007.37 1006.82 1006.30 1005.81
1016.82 1017.47 1018.06 1018.61 1019.10 1019.56 1019.98 1020.36 1020.71 1021.02 1021.28 1021.50 1021.65 1021.73 1021.73 1021.64 1021.47 1021.22 1020.88 1020.48 1020.02 1019.52 1018.99 1018.44 1017.87 1017.28 1016.68 1016.07 1015.42 1014.75 1014.04 1013.29 1012.51 1011.71 1010.88 1010.05 1009.23 1008.44 1007.69 1006.98 1006.32 1005.72 1005.16 1004.63
Thickness
5706 5707 5707 5706 5704 5702 5702 5707 5703 5709 5712 5720 5727 5729 5733 5734 5735 5734 5734 5735 5735 5733 5733 5731 5729 5728 5726 5724 5721 5718 5714 5711 5709 5708 5704 5702 5700 5698 5696 5694 5692 5690 5689 5687
5699 5703 5702 5701 5704 5704 5703 5706 5707 5709 5712 5727 5731 5732 5733 5734 5733 5731 5733 5734 5735 5735 5734 5732 5730 5727 5725 5722 5720 5718 5714 5711 5708 5705 5702 5699 5697 5695 5692 5690 5688 5687 5685 5684
5693 5697 5695 5692 5705 5705 5704 5708 5710 5707 5717 5726 5725 5726 5729 5732 5732 5732 5733 5735 5735 5737 5736 5735 5734 5731 5725 5723 5720 5716 5714 5709 5705 5703 5699 5696 5695 5692 5688 5686 5685 5684 5682 5680
5691 5688 5675 5704 5718 5714 5709 5711 5716 5718 5721 5724 5725 5728 5732 5734 5734 5734 5735 5736 5736 5737 5737 5737 5736 5732 5728 5723 5719 5715 5712 5708 5704 5701 5697 5694 5692 5689 5686 5685 5682 5680 5679 5677
5687 5682 5690 5702 5711 5711 5706 5708 5720 5718 5720 5723 5726 5727 5730 5734 5735 5736 5737 5737 5737 5738 5737 5736 5733 5730 5726 5721 5717 5713 5710 5706 5703 5699 5695 5691 5688 5686 5684 5683 5679 5677 5675 5672
5683 5676 5678 5700 5713 5717 5710 5702 5721 5721 5719 5720 5720 5716 5724 5733 5733 5734 5736 5736 5735 5735 5735 5732 5730 5728 5723 5719 5715 5712 5709 5706 5702 5698 5693 5690 5687 5684 5682 5679 5676 5673 5671 5669
5679 5679 5692 5706 5709 5708 5693 5704 5719 5720 5719 5719 5718 5722 5727 5729 5729 5730 5731 5731 5732 5731 5729 5728 5727 5723 5719 5717 5713 5711 5708 5704 5699 5695 5691 5688 5684 5681 5677 5675 5672 5670 5668 5666
5679 5675 5684 5704 5703 5701 5708 5718 5718 5718 5718 5717 5719 5720 5721 5722 5723 5724 5724 5726 5726 5725 5724 5723 5722 5719 5716 5713 5712 5708 5704 5699 5695 5692 5688 5684 5680 5676 5674 5670 5667 5665 5664 5661
5687 5688 5697 5702 5704 5708 5711 5712 5713 5714 5715 5715 5713 5714 5715 5716 5718 5719 5720 5720 5721 5720 5718 5717 5716 5714 5711 5709 5707 5703 5698 5694 5691 5688 5684 5681 5677 5672 5669 5666 5664 5662 5660 5657
5682 5687 5691 5693 5697 5700 5703 5705 5708 5710 5710 5710 5709 5710 5710 5712 5713 5713 5713 5713 5714 5713 5712 5710 5709 5708 5707 5705 5702 5698 5694 5691 5687 5684 5681 5677 5673 5670 5666 5663 5660 5658 5656 5653
5676 5681 5683 5686 5690 5694 5696 5700 5701 5703 5705 5705 5705 5705 5706 5706 5707 5707 5707 5707 5707 5706 5705 5704 5703 5701 5700 5699 5697 5694 5691 5687 5684 5680 5677 5673 5668 5666 5663 5661 5658 5654 5652 5650
5672 5678 5679 5682 5687 5689 5690 5691 5694 5695 5696 5698 5700 5699 5700 5701 5701 5701 5701 5700 5700 5700 5699 5698 5697 5695 5693 5692 5691 5689 5686 5683 5679 5675 5670 5667 5663 5658 5653 5652 5649 5646 5643 5642
5672 5674 5675 5677 5680 5682 5684 5685 5688 5689 5690 5691 5693 5695 5695 5695 5695 5694 5694 5694 5693 5693 5693 5692 5690 5688 5687 5686 5685 5683 5681 5677 5673 5670 5666 5662 5658 5655 5650 5644 5640 5637 5635 5633
5662 5664 5664 5668 5670 5673 5676 5679 5681 5683 5684 5685 5686 5687 5687 5688 5687 5687 5687 5687 5686 5686 5685 5685 5683 5681 5681 5679 5677 5675 5673 5669 5666 5663 5661 5658 5654 5651 5648 5644 5640 5636 5631 5626
5653 5657 5659 5661 5662 5665 5667 5670 5671 5673 5674 5676 5678 5679 5679 5679 5679 5679 5680 5680 5679 5678 5677 5677 5676 5674 5673 5671 5669 5667 5665 5663 5660 5658 5655 5652 5649 5646 5643 5640 5637 5633 5629 5623
5645 5648 5649 5651 5653 5656 5659 5661 5662 5664 5665 5666 5668 5669 5670 5671 5671 5670 5670 5671 5670 5670 5669 5669 5668 5666 5664 5663 5661 5659 5658 5654 5652 5651 5648 5646 5643 5640 5637 5634 5631 5627 5624 5620
5635 5637 5640 5641 5644 5647 5650 5653 5655 5656 5657 5658 5659 5660 5661 5661 5661 5661 5661 5662 5662 5661 5661 5660 5659 5658 5656 5655 5653 5652 5650 5647 5642 5642 5641 5639 5636 5634 5631 5628 5625 5621 5618 5614
5630 5633 5635 5636 5637 5639 5641 5643 5645 5646 5647 5648 5649 5650 5650 5651 5651 5652 5653 5653 5652 5651 5651 5651 5650 5649 5647 5646 5645 5643 5642 5640 5637 5636 5634 5631 5629 5627 5624 5621 5618 5614 5610 5606
5619 5621 5623 5625 5627 5629 5632 5633 5635 5637 5638 5638 5639 5640 5641 5642 5643 5643 5643 5643 5642 5641 5641 5641 5638 5639 5638 5636 5634 5633 5633 5632 5630 5628 5626 5621 5619 5618 5615 5613 5610 5606 5603 5599
5608 5610 5612 5614 5616 5618 5620 5622 5624 5625 5627 5628 5629 5631 5631 5632 5632 5632 5632 5632 5632 5633 5632 5631 5630 5629 5629 5627 5624 5625 5624 5622 5620 5618 5616 5613 5611 5609 5607 5604 5601 5598 5594 5591
5599 5601 5602 5604 5605 5607 5609 5612 5613 5615 5617 5618 5619 5621 5622 5622 5622 5621 5621 5621 5621 5620 5620 5619 5620 5619 5618 5616 5613 5614 5613 5611 5610 5608 5606 5604 5603 5600 5598 5595 5592 5589 5585 5582
5589 5591 5592 5594 5595 5597 5599 5601 5603 5605 5606 5607 5609 5610 5610 5610 5610 5610 5610 5610 5610 5607 5608 5608 5609 5607 5606 5604 5603 5603 5602 5601 5599 5598 5596 5595 5593 5591 5589 5586 5583 5579 5576 5572
5579 5581 5582 5584 5585 5587 5589 5590 5592 5594 5595 5597 5598 5599 5599 5599 5599 5599 5599 5599 5598 5597 5597 5597 5596 5594 5593 5593 5592 5591 5590 5589 5588 5587 5585 5584 5583 5581 5578 5574 5571 5568 5564 5560
5568 5570 5571 5573 5575 5576 5578 5580 5580 5582 5584 5586 5587 5588 5588 5588 5588 5588 5588 5587 5586 5585 5586 5585 5583 5582 5581 5582 5581 5579 5578 5577 5575 5574 5572 5571 5569 5567 5565 5561 5558 5555 5551 5548
5557 5559 5561 5562 5564 5566 5568 5569 5570 5571 5573 5574 5576 5576 5576 5576 5576 5576 5576 5575 5574 5573 5574 5573 5572 5570 5570 5570 5569 5568 5566 5565 5563 5561 5559 5557 5555 5552 5550 5548 5544 5542 5538 5535
5546 5548 5550 5552 5554 5555 5557 5558 5560 5561 5562 5563 5564 5565 5565 5564 5564 5564 5564 5564 5563 5562 5562 5561 5560 5558 5558 5557 5556 5555 5554 5552 5550 5547 5546 5543 5541 5538 5536 5533 5530 5527 5524 5521
5534 5536 5537 5540 5542 5544 5546 5548 5549 5551 5552 5553 5553 5553 5553 5553 5553 5553 5552 5552 5551 5550 5550 5549 5548 5547 5545 5544 5543 5541 5540 5538 5536 5534 5532 5529 5527 5525 5522 5519 5516 5513 5509 5506